RH
29 29 30 30 29 28 27 26 25 25 24 25 27 29 31 33 34 34 35 35 37 38 39 41 42 42 42 44 46 47 44 41 43 44 39 38 44 48 49 52 52 50 45
35 34 35 36 35 33 30 28 27 29 29 31 34 34 35 36 36 37 38 38 36 37 37 40 41 46 48 47 44 43 43 40 40 39 35 32 37 44 49 53 55 53 51
42 40 42 41 40 39 36 33 31 32 32 34 36 37 39 40 40 42 41 41 37 36 38 40 40 44 51 53 43 44 46 43 40 36 35 33 33 38 44 51 57 58 54
47 49 51 52 47 47 44 42 38 36 39 40 43 44 45 44 43 44 45 44 45 43 42 39 41 41 43 48 48 53 49 48 46 41 38 35 36 38 44 54 55 59 58
48 49 53 55 50 54 49 49 49 49 50 49 49 52 52 49 49 49 47 43 42 39 39 43 41 42 44 48 51 52 51 48 47 43 42 41 39 40 39 42 51 62 63
49 51 62 59 55 58 52 51 54 57 57 58 53 49 52 47 47 46 46 43 39 37 38 38 38 43 45 50 54 54 53 48 49 45 47 48 44 38 38 39 41 43 52
58 63 69 71 66 63 61 61 62 62 59 59 50 54 54 50 47 44 43 42 42 42 41 40 42 48 48 54 55 54 55 54 52 53 50 52 48 43 34 38 40 41 45
77 73 76 85 77 76 75 73 70 79 70 62 59 56 56 53 52 44 44 44 44 46 43 43 49 53 56 58 57 55 60 55 58 57 56 53 51 47 37 42 42 42 41
79 83 91 89 92 92 86 82 81 81 78 77 70 63 60 57 54 55 50 49 50 52 54 54 53 55 57 57 57 60 60 58 59 57 56 53 54 53 47 45 44 43 40
86 95 91 96 95 98 98 95 91 91 87 81 79 66 58 53 56 58 59 60 60 61 59 58 57 55 59 60 60 63 61 58 61 62 56 55 51 55 49 47 44 42 38
97 92 95 97 96 98 98 98 94 96 93 88 79 69 67 67 66 67 65 68 67 61 58 55 54 53 54 58 57 59 62 63 63 63 61 57 52 52 47 45 52 54 49
93 93 95 97 98 99 92 90 90 89 93 92 90 87 84 80 75 70 67 66 65 62 60 55 54 54 56 58 58 56 61 66 66 67 63 58 55 54 47 45 47 50 50
95 94 92 91 87 88 91 87 86 86 87 87 88 86 83 77 73 66 63 65 64 64 65 54 54 54 56 59 59 61 61 61 64 69 69 64 61 55 46 46 46 49 48
93 94 95 94 90 91 85 89 83 81 74 72 74 74 73 71 68 66 67 66 66 64 62 62 57 57 59 63 63 66 64 65 64 64 68 65 61 56 48 48 46 47 45
76 80 87 89 88 86 81 80 79 71 70 69 68 68 66 63 63 65 62 61 64 63 63 65 60 58 58 60 62 65 66 68 72 66 66 65 64 61 52 53 48 47 47
66 72 77 80 81 79 78 77 71 70 68 64 66 67 68 70 67 65 65 64 62 62 57 54 49 48 48 51 54 57 60 63 64 62 65 66 63 59 52 56 51 52 52
59 64 66 68 71 71 70 68 71 66 67 68 69 69 67 68 68 63 57 53 51 50 47 44 43 45 49 51 56 59 63 66 67 68 68 69 64 60 54 55 51 54 53
56 58 63 66 67 65 60 62 63 64 64 65 64 61 59 55 51 50 47 44 43 45 44 44 46 50 52 55 59 62 68 70 71 73 74 68 68 55 45 44 45 38 40
46 47 50 55 57 58 59 57 59 61 59 59 54 50 47 45 43 41 41 42 42 44 45 47 51 54 56 59 62 66 70 73 75 77 75 75 72 51 38 37 33 31 31
39 42 47 50 51 54 54 58 57 54 53 49 49 45 42 39 39 39 39 41 45 47 49 51 54 57 60 63 66 69 73 77 79 81 75 75 61 45 43 37 41 37 27
41 44 45 46 47 50 52 52 50 50 49 45 42 42 41 39 40 43 44 45 49 51 53 55 56 60 64 67 69 72 75 79 77 66 63 55 44 47 50 48 42 32 31
45 44 46 47 47 48 49 50 50 49 51 46 40 40 43 45 47 50 50 53 53 52 52 54 60 65 69 73 77 79 70 60 57 55 54 54 50 50 43 44 36 34 35
47 47 47 48 49 50 52 54 54 53 49 47 44 43 47 51 53 55 55 53 50 47 49 58 65 69 73 70 63 58 56 58 58 56 55 54 52 51 49 45 42 42 40
55 54 54 57 57 56 58 59 57 54 52 53 50 51 54 55 54 56 55 47 40 38 38 47 51 55 54 52 54 56 55 57 60 59 58 62 59 56 56 53 52 51 49
66 62 61 61 60 62 62 62 61 58 57 58 56 57 59 55 53 55 51 43 42 39 37 40 43 44 48 51 54 56 58 61 64 65 66 68 66 64 61 59 57 54 51
70 72 74 74 74 72 70 69 68 65 62 62 64 64 64 56 56 58 47 43 41 42 41 45 46 49 53 57 58 59 59 60 65 66 64 65 70 73 69 64 59 55 52